21 Jan 2020 20:54 UTC 2020021+20:54 UTC

Overview Datums Bench Marks Data Query Site Visit Daily QC Messages Attributes

170: National Park Service - Baffin Bay

27° 17' 49" N   97° 24' 17" W
NPSBB
United States National Park Service United States National Park Service

Station Information

National Park Service - Baffin Bay
National Park Service - Baffin Bay
more pictures
 
Station Name:National Park Service - Baffin Bay
DNR ID:170
Location:27° 17' 49" N, 97° 24' 17" W

Water Level Forecasts

Latest Observations

Series Metric English Marine Observed at
Water Temperature 17.0 °C 62.6 °F 62.6 °F Jan 21 14:30 CST
00h20m ago
Salinity 36.000 psu 36.000 psu 36.000 psu Jan 21 14:30 CST
00h20m ago
Turbidity -1000 ntu -1000 ntu -1000 ntu Jan 21 14:30 CST
00h20m ago
Dissolved Oxygen 0.00 mg/L 0.000000 lb/ft3 0.000000 lb/ft3 Jan 21 14:30 CST
00h20m ago

Maps

National Park Service - Baffin Bay
All Stations in Area
Entire Network
 

Recent Observations

Date/Time Water
Temp (°F)
Sal (psu) pH (pH) Turb (ntu) DO (lb/ft3)
Jan 21 14:00 CST 62.4 35.000 -539 0.000000
Jan 21 13:00 CST 62.1 38.300 -1000 0.000000
Jan 21 12:00 CST 61.5 37.300 -1000 0.000000
Jan 21 11:00 CST 60.4 37.100 -1000 0.000000
Jan 21 10:00 CST 60.3 36.300 -1000 0.000000
Jan 21 09:00 CST 59.5 37.300 -1000 0.000000
Jan 21 08:00 CST 60.4 35.700 -1000 0.000000
Jan 21 07:00 CST 60.4 35.600 -1000 0.000000
Jan 21 06:00 CST 60.1 35.800 -1000 0.000000
Jan 21 05:00 CST 60.1 37.000 -1000 0.000000
Jan 21 04:00 CST 60.4 37.200 -445 0.000000
Jan 21 03:00 CST 60.8 37.000 -1000 0.000000
Jan 21 02:00 CST 60.6 36.800 -1000 0.000000
Jan 21 01:00 CST 61.0 35.700 10000 0.000000
Jan 21 00:00 CST 61.2 37.200 -1000 0.000000
Jan 20 23:00 CST 61.5 35.800 -1000 0.000000
Jan 20 22:00 CST 61.9 36.000 -1000 0.000000
Jan 20 21:00 CST 62.1 37.000 -1000 0.000000
Jan 20 20:00 CST 63.5 37.400 -1000 0.000000
Jan 20 19:00 CST 63.7 37.300 -1000 0.000000
Jan 20 18:00 CST 63.7 36.800 -1000 0.000000
Jan 20 17:00 CST 63.9 37.200 -1000 0.000000
Jan 20 16:00 CST 63.5 37.600 -342 0.000000
Jan 20 15:00 CST 63.1 37.700 -1000 0.000000
Jan 20 14:00 CST 63.7 37.000 -1000 0.000000

Historical Data Availability